Temperature
11 12 13 14 14 15 15 15 15 15 15 15 15 15 15 15 15 16 15 15 15 16 16 16 16 16 16 17 17 17 17 17 17 17 17 17 18 18 18 17 17 17 17
9 11 13 13 14 14 15 15 15 15 15 15 15 15 15 15 15 15 15 15 15 15 15 16 16 16 16 16 16 17 17 17 17 17 17 17 17 18 18 17 17 17 17
9 10 12 13 13 14 14 14 15 15 15 15 15 15 15 15 14 14 15 15 15 15 15 15 15 16 16 16 16 16 16 17 17 17 17 17 17 17 17 17 17 17 17
9 10 11 12 13 13 13 14 14 14 14 14 14 14 15 15 15 14 14 14 14 15 15 15 16 16 16 16 16 16 16 16 17 17 17 17 17 17 17 17 17 17 17
9 10 11 12 12 13 13 13 13 13 14 14 14 14 14 14 14 14 14 14 14 14 14 15 15 16 16 16 16 16 16 16 16 16 17 16 16 16 17 17 17 17 17
10 10 11 12 12 12 12 13 13 13 13 13 13 13 13 13 14 14 14 14 14 14 14 14 14 15 15 15 15 15 16 16 16 16 16 16 16 16 17 17 17 17 17
10 10 10 11 11 11 12 12 12 12 12 12 13 13 13 13 13 13 13 13 13 13 14 14 14 14 14 15 15 15 15 15 15 16 16 16 16 16 17 17 17 17 17
9 10 10 11 11 11 11 11 11 12 12 12 12 12 12 12 12 12 13 13 13 13 13 13 14 14 14 14 14 15 15 15 15 15 15 15 15 16 16 17 17 17 17
9 9 10 10 11 11 11 11 11 11 11 11 11 12 12 12 12 12 12 12 12 12 13 13 13 13 14 14 14 14 15 15 15 15 15 15 15 16 16 16 16 17 17
8 9 9 10 10 10 10 10 10 10 10 10 10 11 11 11 12 12 12 12 12 12 12 12 12 13 13 13 14 14 14 15 15 15 15 15 15 15 16 16 16 16 17
8 8 9 9 9 9 9 9 9 8 8 8 8 8 9 10 10 11 11 11 11 11 11 11 12 12 12 13 13 13 14 14 15 15 15 15 15 15 15 16 16 16 16
7 7 7 8 8 8 8 8 8 7 7 6 6 5 6 7 7 8 9 10 11 11 11 11 11 11 12 12 12 13 13 13 14 14 14 15 15 15 15 15 16 16 16
5 6 6 6 6 6 6 6 5 5 5 4 4 3 4 4 5 6 7 8 9 9 10 11 12 11 11 11 12 12 12 13 13 14 14 14 15 15 15 15 15 15 16
4 4 4 4 3 3 3 3 3 3 3 3 2 1 2 2 3 4 4 5 5 6 7 9 10 10 11 11 11 11 12 12 13 13 14 14 14 14 14 15 15 15 15
3 3 3 3 3 3 2 2 2 2 2 1 1 0 0 1 1 1 2 2 3 3 4 6 7 8 9 10 11 11 11 11 12 13 13 13 14 14 14 14 14 15 15
2 2 2 2 2 2 1 1 0 0 0 0 -0 -1 -1 -1 -1 -1 -0 0 0 1 2 3 4 5 6 7 9 10 10 11 11 12 13 13 13 13 13 14 14 14 15
1 1 1 1 1 1 0 -0 -1 -1 -1 -1 -2 -2 -2 -2 -2 -2 -2 -2 -2 -1 0 1 2 3 4 5 7 8 10 10 11 11 12 12 13 13 13 13 13 14 14
0 -0 -0 -1 -0 -0 -1 -1 -1 -1 -1 -2 -2 -2 -3 -3 -3 -3 -3 -3 -3 -3 -2 -1 -0 1 2 3 4 6 8 9 10 11 11 12 12 12 13 13 13 13 13
-0 -1 -1 -1 -1 -1 -2 -2 -2 -2 -2 -3 -3 -4 -4 -4 -4 -4 -4 -5 -5 -4 -4 -3 -3 -2 -0 1 3 4 5 7 9 10 11 11 12 12 12 12 13 13 13
-1 -1 -2 -2 -2 -2 -2 -2 -3 -3 -4 -4 -5 -5 -5 -5 -5 -5 -6 -5 -5 -5 -5 -5 -5 -4 -3 -1 0 2 4 5 7 9 10 10 11 12 12 12 12 12 12
-1 -2 -3 -3 -4 -4 -4 -4 -5 -5 -5 -5 -5 -6 -6 -6 -6 -6 -6 -6 -6 -6 -6 -6 -6 -5 -5 -4 -2 1 4 5 6 8 10 10 10 11 11 12 12 12 12
-2 -3 -4 -4 -5 -5 -5 -6 -6 -6 -6 -6 -6 -6 -7 -7 -7 -7 -7 -7 -7 -7 -6 -6 -6 -6 -6 -5 -5 -4 -1 2 5 7 8 9 10 10 11 11 12 12 12
-3 -4 -4 -5 -5 -6 -6 -6 -6 -6 -6 -6 -6 -7 -7 -8 -8 -8 -8 -8 -8 -8 -7 -7 -6 -6 -6 -5 -5 -4 -3 -1 -1 6 7 8 9 10 10 11 11 12 12
-3 -4 -5 -5 -6 -6 -6 -7 -7 -8 -8 -8 -8 -8 -8 -8 -8 -9 -9 -9 -9 -8 -8 -8 -7 -7 -6 -6 -5 -5 -4 -4 -3 -1 5 7 7 8 9 10 11 11 11
-4 -4 -5 -6 -6 -7 -7 -7 -8 -8 -9 -8 -8 -8 -8 -8 -9 -9 -9 -10 -9 -9 -9 -8 -8 -7 -7 -6 -5 -5 -5 -4 -4 -3 -2 4 6 7 7 9 10 11 11
-4 -5 -5 -6 -7 -7 -7 -8 -8 -9 -9 -9 -9 -9 -9 -9 -9 -10 -10 -10 -10 -10 -9 -9 -8 -8 -7 -6 -6 -5 -5 -5 -4 -3 -2 -1 1 5 6 8 9 10 11
Wind_Speed
15 27 32 33 33 33 32 31 30 29 26 22 19 17 17 16 16 16 15 13 11 11 11 11 11 11 11 10 9 7 6 5 4 4 4 4 2 3 3 1 2 2 9
15 24 29 32 33 33 32 32 31 30 30 29 25 21 18 17 15 15 15 15 14 13 12 12 12 11 12 12 11 8 7 7 6 5 5 6 6 5 5 3 3 6 7
15 21 26 30 33 33 33 33 32 31 31 30 30 27 24 21 18 16 15 15 15 15 14 14 14 13 12 11 11 10 9 8 8 7 7 9 11 10 8 5 3 3 5
15 19 26 29 31 32 32 33 33 32 32 31 30 29 28 27 25 22 18 17 16 15 14 15 15 14 13 12 12 12 11 10 9 9 9 12 13 12 10 7 5 4 4
16 19 26 30 30 31 32 31 32 32 31 32 32 30 29 28 27 26 24 21 18 16 15 15 15 14 13 12 12 12 13 12 11 10 12 13 10 13 12 9 8 6 6
19 22 26 30 31 30 31 31 31 31 31 31 31 31 29 28 28 27 27 25 23 20 17 17 16 14 12 12 12 13 14 13 11 12 15 14 10 14 13 11 10 8 7
18 24 26 31 33 32 31 32 31 30 31 30 30 31 29 28 28 27 27 27 27 25 22 19 17 15 13 12 12 13 14 14 12 13 14 13 10 15 13 13 12 11 10
20 24 27 31 33 34 32 32 31 30 31 30 30 31 30 28 28 27 27 27 27 26 25 23 20 17 16 14 13 13 13 13 13 14 14 13 10 13 14 13 13 13 12
23 25 28 29 31 33 32 32 32 30 30 30 29 31 30 28 28 27 28 28 28 27 26 25 22 20 18 15 14 13 12 13 13 11 12 12 13 14 13 13 13 14 14
21 25 28 29 30 31 30 30 31 30 30 31 29 30 29 28 27 27 28 28 28 28 27 26 25 23 21 18 16 15 13 11 12 14 13 12 13 15 14 12 13 15 14
18 21 26 27 28 29 28 28 29 28 28 29 28 30 28 25 25 25 27 28 28 28 27 27 28 27 23 19 19 19 15 11 13 14 14 15 15 15 14 12 12 14 14
18 16 23 25 26 27 26 25 25 25 26 27 27 27 26 25 24 25 27 27 27 27 26 27 29 26 23 18 18 18 11 13 15 13 14 19 18 15 13 12 12 12 14
14 15 20 25 26 26 24 23 22 22 23 24 25 26 26 24 23 23 23 23 24 23 22 24 23 21 21 19 15 14 12 13 11 12 13 22 21 18 15 14 14 14 14
12 15 17 25 25 25 24 22 22 21 21 22 23 24 23 20 21 22 20 22 21 19 19 19 18 20 21 21 18 13 12 11 12 12 10 21 22 19 16 15 15 16 16
15 16 15 24 25 26 23 21 21 21 22 23 23 22 23 20 18 20 20 20 20 20 19 17 15 15 15 16 17 15 11 12 13 13 11 19 22 19 17 16 17 18 17
15 15 16 22 26 26 22 19 19 21 22 22 22 22 23 23 21 20 18 18 19 21 21 18 16 13 11 12 14 15 14 13 13 13 13 15 23 22 19 18 19 19 20
14 14 14 21 26 26 24 21 20 21 23 20 20 21 23 24 23 22 17 15 19 22 21 18 15 13 12 13 15 16 13 13 14 14 13 11 16 21 21 20 20 20 21
13 14 13 21 22 24 23 21 21 21 23 21 20 21 23 25 25 23 17 15 22 22 18 11 11 12 12 13 13 13 14 13 16 16 13 10 10 14 19 21 21 21 22
13 13 13 15 18 21 22 22 21 21 21 21 20 20 23 23 25 23 18 18 22 18 14 12 12 12 13 13 14 14 12 12 15 16 16 11 9 9 12 18 23 23 23
12 12 12 13 18 21 19 19 16 17 19 20 19 21 23 23 25 23 18 20 21 13 11 12 14 13 12 13 15 14 13 14 13 14 16 13 9 9 10 12 14 18 23
11 12 13 13 13 14 11 12 12 12 11 13 18 22 22 23 25 22 17 18 18 12 14 15 14 15 12 12 11 13 12 13 15 13 13 13 11 8 8 10 11 12 14
10 12 12 13 13 13 11 10 9 10 9 14 19 21 21 23 24 21 18 15 15 12 14 15 15 12 12 11 11 11 7 8 6 10 9 11 12 9 9 8 10 11 11
10 11 13 11 11 14 17 14 12 7 9 9 10 8 19 23 22 21 20 18 15 10 11 14 14 14 13 11 9 6 6 6 12 11 12 10 7 7 9 9 10 11 13
9 9 10 11 9 12 15 11 13 12 12 13 11 10 19 23 22 21 20 20 16 12 12 13 14 13 13 11 9 7 8 9 7 8 12 12 14 12 9 8 9 10 11
8 8 9 10 9 11 12 10 10 10 9 10 11 12 10 17 20 21 22 20 17 13 11 13 15 14 12 12 10 9 9 9 11 9 13 16 13 11 10 10 7 7 9
8 8 8 10 10 9 9 9 10 11 12 13 13 12 12 9 13 19 22 21 19 14 12 13 14 15 13 14 12 9 10 9 9 9 11 15 16 14 15 12 10 6 5
Wind_Direction
343 350 0 12 20 23 23 23 22 19 13 6 360 358 358 357 353 351 349 348 346 342 337 331 327 323 320 317 316 315 305 298 294 294 285 275 238 167 148 142 349 117 123
339 358 6 18 23 24 24 23 23 22 20 16 9 1 356 353 350 346 344 343 342 340 336 331 324 315 309 307 305 302 290 279 271 265 265 260 242 212 184 169 32 109 125
352 9 10 20 24 25 25 25 24 23 21 19 16 11 5 357 349 344 340 338 334 332 331 326 322 315 304 297 293 288 281 272 265 255 248 252 228 213 200 182 142 121 126
359 20 15 21 25 25 25 25 24 23 22 20 17 14 11 9 4 356 350 344 336 329 327 323 316 312 304 293 284 277 273 268 260 253 246 247 227 210 200 192 182 174 161
10 24 21 20 22 24 24 24 23 21 21 20 18 15 12 10 9 7 2 357 349 338 328 321 313 309 307 300 286 273 267 262 255 249 258 262 220 192 194 197 194 191 184
18 19 20 19 18 19 20 19 19 19 18 18 16 14 13 12 10 9 8 4 358 350 337 325 316 309 308 306 294 276 264 257 249 244 251 256 196 178 190 196 197 196 189
17 16 16 17 14 12 14 13 13 14 13 13 14 12 9 9 10 9 10 7 2 355 347 337 325 313 307 305 300 285 268 256 241 248 253 260 218 183 194 197 198 197 194
18 17 14 14 12 9 7 9 7 8 8 7 9 8 6 5 6 6 6 4 0 357 352 344 334 323 312 305 302 295 279 258 245 242 248 256 252 196 200 202 202 200 197
23 19 15 13 11 7 3 5 3 4 5 2 5 5 2 1 1 1 2 359 357 355 352 347 338 329 318 306 300 296 284 258 250 260 255 241 234 213 208 207 210 207 201
25 19 16 10 10 6 360 2 360 360 2 359 1 1 0 359 358 357 357 354 354 352 350 350 346 336 324 310 296 285 277 264 245 251 248 238 216 211 211 208 211 211 205
20 17 14 8 8 5 359 359 357 357 359 357 356 358 358 356 355 354 352 350 352 350 350 350 346 341 332 315 298 279 262 245 245 244 234 226 213 208 208 207 208 211 210
14 11 11 6 5 4 360 358 356 355 356 354 353 356 357 355 353 353 347 347 349 347 351 348 345 343 341 331 319 307 268 247 246 245 222 208 205 205 206 208 210 212 215
11 9 9 4 3 3 357 356 354 353 353 351 351 357 358 355 352 351 346 343 343 345 350 347 344 338 334 329 321 313 287 270 265 256 228 200 196 202 208 213 216 217 218
11 10 7 2 2 360 357 355 354 351 351 349 349 357 1 357 352 349 343 340 340 344 347 344 335 331 331 327 321 314 303 284 274 270 255 195 191 198 208 218 223 224 223
11 9 7 2 3 357 355 355 353 351 350 347 347 355 5 359 351 347 340 339 339 346 343 335 331 332 331 325 323 321 314 305 288 272 256 201 190 193 205 220 228 230 227
9 9 5 1 1 356 353 353 351 349 347 345 344 353 6 358 350 346 338 337 341 344 336 332 333 333 329 327 323 322 316 308 298 282 266 221 202 198 203 217 228 234 233
8 9 6 360 359 354 348 350 351 349 344 341 343 351 2 356 350 345 338 336 342 339 334 334 333 336 333 330 325 322 318 315 310 298 277 246 218 211 206 213 224 231 235
10 9 6 1 357 352 347 350 350 349 343 339 346 353 357 354 350 345 338 338 341 338 336 335 339 341 336 330 325 317 311 308 305 302 292 270 233 215 213 213 219 226 232
14 5 2 1 357 351 350 350 345 347 342 340 347 353 353 352 348 342 336 339 339 336 336 336 339 340 335 330 322 311 306 304 300 298 293 282 263 231 206 211 215 221 227
16 5 359 360 356 351 352 346 342 343 341 340 347 351 349 349 346 340 338 340 337 333 333 333 335 336 331 328 322 315 308 296 286 280 280 278 266 249 224 210 208 220 224
14 5 357 359 354 352 352 346 344 342 337 336 346 346 345 347 343 339 345 340 336 332 331 331 332 330 331 331 328 323 302 280 262 259 260 262 259 251 238 219 206 203 214
15 7 355 359 352 352 351 343 340 333 329 335 341 338 342 344 340 340 343 338 333 329 328 328 328 328 328 334 327 324 318 308 338 298 275 254 245 239 240 228 213 209 205
17 11 355 352 349 349 349 344 341 330 333 337 337 333 340 340 336 338 339 337 331 328 324 325 324 327 323 320 320 320 319 322 328 308 319 318 308 262 237 232 218 212 211
19 11 353 345 345 347 348 343 343 342 338 336 334 331 336 336 333 337 338 336 331 328 324 324 325 320 317 314 313 298 288 296 297 308 311 314 325 314 289 250 226 210 207
20 8 351 342 342 344 346 340 339 335 332 330 330 331 332 331 333 336 337 334 329 326 324 323 321 315 312 306 305 305 296 284 271 277 290 300 308 307 314 305 278 222 199
14 1 348 343 343 344 343 337 338 334 333 333 334 333 331 329 332 335 334 332 326 326 326 322 318 314 308 303 300 300 298 287 276 271 274 287 297 302 312 306 302 274 212
Height
1587 1583 1581 1578 1575 1573 1571 1568 1566 1564 1562 1560 1558 1557 1556 1554 1553 1552 1552 1551 1550 1550 1549 1549 1549 1549 1548 1548 1548 1548 1547 1548 1548 1548 1549 1549 1549 1548 1549 1549 1549 1550 1551
1591 1585 1582 1579 1576 1574 1572 1569 1567 1565 1563 1561 1559 1557 1556 1554 1552 1551 1550 1549 1548 1548 1547 1547 1547 1547 1547 1546 1546 1546 1546 1546 1547 1547 1547 1548 1548 1548 1548 1548 1548 1549 1550
1592 1587 1583 1580 1577 1574 1572 1569 1567 1565 1563 1561 1559 1557 1556 1554 1552 1551 1549 1548 1547 1546 1545 1544 1544 1544 1544 1544 1544 1544 1544 1544 1545 1545 1546 1546 1547 1547 1547 1548 1548 1549 1550
1594 1589 1584 1581 1577 1574 1572 1569 1567 1565 1563 1560 1558 1556 1555 1553 1551 1549 1547 1546 1545 1544 1543 1542 1542 1542 1541 1541 1541 1541 1541 1542 1542 1543 1543 1545 1545 1546 1547 1547 1547 1548 1549
1595 1591 1586 1582 1579 1575 1572 1570 1567 1565 1562 1560 1558 1555 1553 1551 1549 1547 1545 1543 1542 1541 1540 1539 1539 1538 1538 1538 1537 1537 1538 1539 1539 1540 1541 1542 1543 1544 1545 1545 1546 1547 1548
1595 1591 1587 1583 1580 1576 1573 1570 1567 1564 1562 1559 1557 1554 1552 1549 1547 1545 1542 1541 1539 1538 1537 1537 1536 1535 1534 1534 1534 1534 1535 1535 1536 1537 1539 1540 1540 1541 1543 1544 1544 1545 1546
1595 1592 1588 1584 1580 1577 1574 1571 1567 1564 1561 1558 1555 1553 1550 1548 1545 1543 1540 1538 1536 1535 1534 1533 1532 1532 1531 1530 1530 1530 1531 1531 1532 1534 1535 1536 1538 1538 1540 1541 1542 1543 1544
1595 1592 1588 1584 1581 1577 1574 1571 1568 1564 1561 1558 1554 1551 1549 1546 1543 1541 1538 1536 1534 1532 1531 1529 1528 1528 1527 1526 1526 1526 1527 1527 1528 1530 1531 1532 1533 1534 1536 1538 1539 1540 1541
1595 1591 1587 1584 1580 1577 1574 1570 1567 1564 1560 1557 1553 1550 1547 1544 1541 1538 1536 1533 1531 1529 1527 1526 1524 1524 1523 1522 1522 1522 1523 1523 1524 1526 1527 1528 1529 1530 1532 1534 1536 1537 1538
1595 1590 1586 1583 1579 1576 1572 1569 1566 1562 1558 1555 1551 1547 1544 1541 1538 1535 1532 1530 1527 1525 1523 1522 1521 1519 1519 1518 1518 1518 1518 1519 1520 1521 1523 1524 1525 1526 1527 1529 1531 1533 1535
1593 1589 1585 1582 1578 1574 1570 1567 1563 1559 1556 1552 1548 1544 1540 1536 1534 1531 1528 1526 1523 1521 1519 1517 1516 1515 1514 1513 1514 1514 1514 1514 1515 1516 1517 1519 1520 1521 1523 1524 1526 1529 1531
1592 1589 1585 1581 1576 1572 1568 1564 1560 1556 1553 1549 1545 1541 1536 1533 1529 1526 1524 1521 1518 1516 1514 1512 1511 1510 1509 1508 1508 1509 1509 1510 1510 1511 1512 1514 1515 1517 1518 1520 1522 1524 1526
1595 1590 1585 1581 1576 1571 1566 1562 1557 1553 1550 1546 1542 1538 1534 1530 1526 1522 1518 1516 1513 1510 1508 1506 1506 1505 1503 1503 1503 1503 1504 1505 1505 1506 1508 1508 1510 1512 1514 1515 1517 1519 1522
1595 1590 1585 1580 1575 1570 1565 1560 1556 1552 1548 1544 1541 1537 1531 1527 1523 1519 1515 1512 1509 1506 1502 1500 1499 1498 1497 1497 1497 1497 1498 1499 1500 1501 1502 1503 1504 1506 1508 1510 1512 1514 1517
1595 1590 1585 1579 1574 1569 1564 1560 1556 1552 1548 1544 1540 1536 1531 1526 1521 1517 1513 1510 1507 1503 1499 1496 1494 1492 1491 1491 1491 1491 1491 1492 1493 1495 1496 1497 1498 1500 1502 1504 1506 1508 1511
1595 1590 1585 1580 1574 1569 1564 1559 1555 1551 1546 1542 1539 1535 1530 1525 1520 1515 1511 1508 1504 1500 1496 1493 1490 1487 1485 1485 1484 1484 1484 1485 1486 1488 1490 1491 1492 1494 1496 1498 1499 1501 1504
1596 1591 1585 1580 1574 1569 1564 1559 1554 1550 1545 1541 1537 1533 1528 1523 1519 1514 1510 1506 1502 1498 1494 1490 1486 1483 1480 1479 1478 1477 1478 1478 1478 1480 1482 1484 1485 1487 1489 1491 1493 1495 1497
1596 1590 1585 1579 1573 1568 1563 1558 1553 1548 1543 1539 1535 1531 1525 1521 1516 1512 1508 1505 1500 1496 1492 1487 1483 1478 1475 1473 1471 1471 1471 1471 1471 1472 1474 1477 1478 1480 1482 1484 1487 1489 1491
1595 1590 1584 1578 1572 1567 1562 1556 1551 1546 1542 1537 1534 1529 1524 1519 1514 1510 1507 1503 1499 1494 1490 1485 1481 1476 1471 1468 1466 1465 1464 1463 1464 1465 1466 1469 1472 1474 1476 1478 1480 1483 1485
1594 1589 1583 1577 1571 1565 1560 1554 1549 1544 1539 1536 1532 1527 1523 1518 1513 1509 1505 1501 1497 1493 1488 1484 1479 1474 1470 1466 1462 1458 1457 1456 1456 1458 1460 1462 1465 1468 1470 1473 1475 1477 1479
1593 1587 1582 1576 1570 1564 1558 1552 1546 1541 1537 1534 1530 1525 1521 1516 1511 1508 1503 1499 1495 1491 1487 1483 1478 1473 1468 1464 1459 1452 1449 1450 1450 1450 1452 1455 1458 1461 1464 1466 1469 1471 1473
1591 1586 1580 1575 1570 1564 1558 1552 1547 1542 1537 1533 1528 1524 1519 1515 1510 1506 1502 1497 1493 1489 1485 1481 1477 1472 1468 1465 1461 1455 1448 1445 1444 1444 1446 1448 1451 1455 1457 1459 1462 1464 1467
1590 1584 1579 1574 1569 1563 1557 1551 1545 1540 1535 1529 1524 1520 1516 1512 1508 1504 1500 1495 1491 1487 1482 1478 1475 1471 1466 1464 1462 1460 1456 1449 1442 1438 1438 1440 1444 1448 1450 1452 1454 1457 1460
1589 1583 1578 1573 1568 1562 1556 1550 1544 1538 1533 1528 1524 1518 1514 1509 1505 1501 1496 1492 1488 1484 1479 1475 1472 1468 1464 1461 1459 1458 1457 1453 1450 1439 1431 1432 1433 1437 1442 1445 1447 1449 1453
1588 1582 1577 1571 1566 1561 1555 1549 1543 1538 1533 1527 1522 1516 1511 1505 1501 1497 1492 1488 1484 1480 1476 1472 1468 1464 1461 1458 1455 1453 1451 1450 1448 1445 1436 1426 1426 1428 1431 1435 1439 1442 1445
1586 1580 1575 1570 1564 1559 1553 1548 1542 1536 1531 1525 1519 1513 1508 1503 1498 1493 1489 1484 1480 1476 1471 1467 1463 1460 1457 1454 1451 1448 1446 1444 1442 1441 1437 1431 1424 1421 1423 1426 1429 1433 1437